www.pogodaiklimat.ru

Погода и климат >> Архив погоды >> Украина >> Белополе


ПОГОДА в Белополе

  • Прогноз погоды в Белополе
  • Монитор погоды в Белополе
  • Климат города

АРХИВ ПОГОДЫ в Белополе

Время (UTC), дата Ветер
(напр.,м/с)
 
Видим.   Явления Облачность Т
(С)
Тd
(С)
f
(%)
Тe
(С)
Тes
(С)
Комфортность P
(гПа)
Po
(гПа)
Тmin
(С)
Tmax
(С)
R
(мм)
R24
(мм)
S
(см)
06 14.02 В 1 14 км 10/10 300 м
[St]
-6.2 -8.1 86 -9 -9 1020.5 1021.0 -6.2 11
09 14.02 ЮВ 2 4000 м 10 баллов -5.8 -8.1 84 -10 -10 1021.0 987.8
12 14.02 В 2 4000 м 10/10 330 м
[St]
-5.2 -7.3 85 -9 -9 1021.8 1022.0
15 14.02 В 1 4000 м 10 баллов -5.7 -8.0 84 -8 -8 1023.0 989.8
18 14.02 В 2 10 км 10/10 360 м
[St]
-5.5 -7.7 84 -10 -10 1023.2 1023.0 -5.0
21 14.02 В 1 10 км 10 баллов -6.0 -7.5 89 -8 -8 1024.0 990.7
00 15.02 В 2 10 км 10/10 360 м
[St]
-5.8 -7.3 89 -10 -10 1024.1 1024.0
03 15.02 СВ 2 10 км 10 баллов -5.4 -7.2 87 -10 -10 1025.0 991.7
06 15.02 В 2 6000 м слабый снег 10/10 300 м
[Frnb Ns]
-4.8 -5.8 93 -9 -9 1025.3 1025.0 -6.0 0.0 11
09 15.02 В 2 6000 м 10 баллов -3.2 -5.4 85 -7 -7 1026.0 993.0
12 15.02 В 2 3000 м слабый снег 10/10 330 м
[Frnb Ns]
-1.8 -3.9 86 -6 -6 1025.8 1026.0 0.4
15 15.02 СВ 2 2600 м 10 баллов -2.2 -3.0 94 -6 -6 1027.0 994.1
18 15.02 штиль 0 4000 м дымка {снег} 10/10 420 м
[St]
-2.8 -3.5 95 -4 -4 1027.9 1028.0 -1.4 2
21 15.02 ЮВ 1 4000 м дымка 10 баллов -1.8 -2.4 96 -4 -4 1028.0 995.1
00 16.02 ЮВ 1 4000 м дымка 10/10 450 м
[St]
-1.6 -2.1 96 -4 -4 1027.7 1028.0
03 16.02 ЮВ 1 4000 м дымка 10 баллов -2.0 -2.6 96 -4 -4 1027.0 994.1
06 16.02 В 1 600 м туман ?/? -2.1 -2.4 98 -5 -5 1027.6 1028.0 -2.8 11
09 16.02 ЮВ 2 800 м туман н/о -0.8 -1.2 97 -5 -0 1027.0 994.3
12 16.02 ЮВ 1 10 км 10 баллов +0.4 -0.2 96 -2 -2 1026.0 993.4 1
15 16.02 ЮЗ 1 6000 м 10 баллов -0.2 -0.8 96 -2 -2 1026.0 993.4
18 16.02 ЮЗ 1 4000 м дымка {снег} 10/10 360 м
[St]
-0.5 -1.4 94 -3 -3 1025.5 1026.0 +0.7 1
21 16.02 Ю 1 4000 м дымка 10 баллов -0.7 -1.5 94 -3 -3 1025.0 992.3
00 17.02 З 2 10 км ясно -2.9 -4.5 89 -7 -7 1025.5 1026.0
03 17.02 З 2 10 км 10 баллов -4.1 -5.6 89 -8 -8 1025.0 991.9
06 17.02 СЗ 1 8000 м дымка 10/10 420 м
[St]
-1.2 -2.2 93 -3 -3 1025.3 1025.0 -4.8 12
09 17.02 З 2 10 км 6 баллов +1.0 -3.3 73 -2 -0 1025.0 992.5
12 17.02 З 2 4000 м 8/0
[Ac trans Ci fib]
+2.5 -2.7 69 -0 +2 1023.9 1024.0
15 17.02 З 2 4000 м 10 баллов -0.4 -3.8 78 -4 -4 1024.0 991.4
18 17.02 З 2 10 км 10/10 630 м
[Sc]
-1.6 -3.6 86 -5 -5 1024.0 1024.0 +2.6
21 17.02 ЮЗ 2 10 км 10 баллов -5.2 -6.6 90 -10 -10 1024.0 990.8
00 18.02 З 2 10 км 3/0
[Ac trans Ci fib]
-5.8 -6.9 92 -10 -10 1023.7 1024.0
03 18.02 ЮЗ 2 10 км 10 баллов -4.7 -5.9 91 -9 -9 1023.0 989.9
06 18.02 З 1 15 км 5/0
[Ac trans Ci fib]
-5.3 -6.3 93 -8 -7 1023.2 1023.0 -5.8 10
09 18.02 ЮЗ 2 4000 м 10 баллов -1.4 -5.1 76 -5 -5 1023.0 990.3
12 18.02 ЮЗ 2 4000 м 9/0
[Ac trans]
+1.0 -4.6 66 -2 -0 1022.0 1022.0
15 18.02 ЮЗ 2 4000 м 10 баллов +0.2 -3.5 76 -3 -3 1022.0 989.5
18 18.02 ЮЗ 2 10 км 10 баллов -1.0 -2.9 87 -5 -5 1023.0 990.3 +1.4
21 18.02 СЗ 2 4000 м 10 баллов -2.0 -4.5 83 -6 -6 1024.0 991.2
00 19.02 СЗ 2 10 км {ливн. осадки} 10/0
[Ac trans]
-4.6 -8.5 74 -9 -9 1025.1 1025.0
03 19.02 СЗ 2 4000 м 10 баллов -4.2 -6.0 87 -8 -8 1025.0 991.9
06 19.02 З 2 4000 м {ливн. осадки} 8/8 750 м
[Sc]
-6.8 -8.8 86 -11 -11 1026.4 1026.0 -6.8 0.2 9
09 19.02 СЗ 2 4000 м 6 баллов -2.9 -7.6 70 -7 -5 1026.0 993.0
12 19.02 З 2 4000 м {ливн. осадки} 8/0
[Ac trans]
+0.1 -4.8 70 -3 -1 1025.9 1026.0 0.0
15 19.02 З 1 4000 м ясно -1.4 -6.5 68 -3 -3 1026.0 993.2
18 19.02 З 1 10 км ясно -7.0 -9.9 80 -9 -9 1026.9 1027.0 -0.9 0.0
21 19.02 З 1 10 км ясно -9.0 -11.5 82 -11 -11 1027.0 993.2
00 20.02 З 1 10 км ясно -11.2 -13.2 85 -13 -13 1027.6 1028.0
03 20.02 ЮЗ 1 10 км ясно -12.8 -14.8 85 -15 -15 1027.0 992.7
06 20.02 З 1 4000 м 3/0
[Ac trans]
-13.7 -15.0 90 -16 -15 1027.5 1028.0 -13.7 9
09 20.02 ЮЗ 2 4000 м 3 балла -4.4 -10.0 65 -8 -5 1027.0 993.8
12 20.02 З 1 4000 м 3/0
[Ci fib]
0.0 -9.5 49 -1 +3 1025.4 1025.0
15 20.02 штиль 0 4000 м 3 балла -1.8 -11.6 47 -2 -2 1025.0 992.2
18 20.02 штиль 0 10 км ясно -7.4 -10.4 79 -8 -8 1026.0 992.4 +1.9
21 20.02 штиль 0 10 км ясно -10.6 -12.6 85 -11 -11 1026.0 992.0
00 21.02 ЮВ 1 4000 м дымка 3 балла -10.8 -11.4 95 -13 -13 1026.0 992.0

 

Местоположение метеостанции Белополе (Винницкая область, Украина): широта 49.83 долгота 28.88 высота над уровнем моря 258 м.

В архиве по умолчанию представлена погода в Белополе за последнюю неделю. Архивные данные за месяц целиком и за предыдущие месяцы, начиная с января 2011 года, Вы можете получить, выбрав интересующий диапазон дат из раскрывающегося списка и нажав кнопку "Ввод!".

Внимание! Время в таблицах - всемирное. Для получения местного времени необходимо прибавить поправку, которая в Белополе равна 2 ч.

Смотрите также архив погоды в соседних городах и на ближайших метеорологических станциях:

Погода в Житомире (Житомирская область, Украина) (46 км)
Погода в Виннице (Винницкая область, Украина) (70 км)
Погода в Фастове (Киевская область, Украина) (79 км)
Погода в Белой Церкви (Киевская область, Украина) (89 км)
Погода в Жмеринке (Винницкая область, Украина) (103 км)
Погода в Тетереве (Киевская область, Украина) (109 км)
Погода в Жашкове (Черкасская область, Украина) (109 км)
Погода в Хмельнике (Винницкая область, Украина) (110 км)
Погода в Гайсине (Винницкая область, Украина) (121 км)
Погода в Новограде-Волынском (Житомирская область, Украина) (123 км)

Пояснения к столбцам:

Ветер - указаны скорость ветра в м/с - средняя за 10 мин, порывы в срок и между сроками (в фигурных скобках) и направление, откуда дует ветер: С - северный, СВ - северо-восточный, В - восточный, ЮВ - юго-восточный, Ю - южный, ЮЗ - юго-западный, З - западный, СЗ - северо-западный.
Видимость - горизонтальная дальность видимости в метрах или километрах. При видимости от 1 до 10 км при отсутствии осадков обычно наблюдается дымка, при ухудшении видимости до 1 км и менее - туман. В сухую погоду видимость может ухудшаться дымом, пылью или мглою.
Явления - указаны атмосферные явления, наблюдавшиеся в срок или в последний час перед сроком; фигурными скобками обозначены явления, наблюдавшиеся между сроками (за 1-3 часа до срока); квадратными скобками обозначены град или гололедные отложения с указанием их диаметра в мм.
Облачность - указаны через наклонную черту общая и нижняя облачность в баллах и высота нижней границы облаков в метрах; квадратными скобками обозначены формы облаков: Ci - перистые, Cs - перисто-слоистые, Cc - перисто-кучевые, Ac - высококучевые, As - высокослоистые, Sc - слоисто-кучевые, Ns - слоисто-дождевые, Cu - кучевые, Cb - кучево-дождевые. Подробнее классификацию облаков см. в Атласе облаков (PDF).
T - Температура воздуха - температура, измеренная на высоте 2 м над землей.
Td - Температура точки росы - температура, при понижении до которой содержащийся в воздухе водяной пар достигнет насыщения.
f - Относительная влажность воздуха - влажноcть воздуха, измеренная на высоте 2 м над землей.
Te - Эффективная температура - температура, которую ощущает одетый по сезону человек в тени. Характеристика душности погоды. При расчете учитывается влияние влажности воздуха и скорости ветра на теплоощущения человека.
Tes - Эффективная температура на солнце - температура, которую ощущает человек, с поправкой на солнечный нагрев. Характеристика знойности погоды. Зависит от высоты солнца над горизонтом, облачности и скорости ветра. Ночью, в пасмурную погоду, а также при ветре 12 м/с и более поправка равна нулю.
P - Атмосферное давление - приведенное к уровню моря атмосферное давление.
Po - Атмосферное давление - измеренное на уровне метеостанции атмосферное давление.
Tmin - Минимальная температура - минимум температуры воздуха на высоте 2 м над землей.
Tmax - Максимальная температура - максимум температуры воздуха на высоте 2 м над землей.
R - Количество осадков - Количество выпавших осадков за период времени, мм. При наведении курсора мыши на число - период времени, за который выпало указанное количество осадков.
R24 - Количество осадков - Количество выпавших осадков за 24 часа, мм.
S - Снежный покров - Высота снежного покрова, см. При наведении курсора мыши на число - состояние снежного покрова и степень покрытия местности в баллах.